Terminal Aerodrome Forecast
Issued by NWS

Home | Current Version | Previous Version | Text Only | Print | Product List | Glossary On
Versions: 1 2 3 4 5 6 7 8 9 10 11 12 13 14 15 16 17 18 19 20 21 22 23 24 25 26 27 28 29 30 31 32 33 34 35 36 37 38 39 40 41 42 43 44 45 46 47 48 49 50
000
FTUS42 KMFL 270523
TAFTMB
TAF
KTMB 270523Z 2706/2806 00000KT 1/2SM FG SCT003
      TEMPO 2706/2709 1/4SM FG VV002
     FM270900 00000KT 1/4SM FG VV001
     FM271200 11005KT 3SM BR SCT010 BKN020
      TEMPO 2713/2714 1SM BR BKN005
     FM271400 11010KT P6SM SCT030
     FM272300 VRB03KT P6SM FEW030=

USA.gov is the U.S. government's official web portal to all federal, state and local government web resources and services.